Regional Weather Roundup
Issued by NWS Charleston, SC

Current Version | Previous Version | Graphics & Text | Print | Product List | Glossary On
Versions: 1 2 3 4 5 6 7 8 9 10 11 12 13 14 15 16 17 18 19 20 21 22 23 24 25 26 27 28 29 30 31 32 33 34 35 36 37 38 39 40 41 42 43 44 45 46 47 48 49 50
522
ASUS42 KCHS 170612
RWRCHS

REGIONAL WEATHER ROUNDUP
NATIONAL WEATHER SERVICE CHARLESTON SC
100 AM EST TUE JAN 17 2017

NOTE: "FAIR" INDICATES FEW OR NO CLOUDS BELOW 12,000 FEET WITH NO
SIGNIFICANT WEATHER AND/OR OBSTRUCTIONS TO VISIBILITY.

NOT ALL STATIONS ARE QUALITY CONTROLLED. USE DATA WITH CAUTION...
ESPECIALLY DEWPOINT OBSERVATIONS.

SCZ027-030-031-034>040-042>050-170700-
...SOUTHEAST SOUTH CAROLINA...

CITY           SKY/WX    TMP DP  RH WIND       PRES   REMARKS
N CHARLESTON   PTCLDY    52  50  93 N3        30.27F
6HR MIN TEMP:  51; 6HR MAX TEMP:  60;

WATERFRONT PRK   N/A     55  55 100 CALM      30.26F
MOUNT PLEASANT FAIR      54  52  94 CALM      30.28S FOG
JOHNS ISLAND   CLOUDY    54  52  94 CALM      30.28F
PINOPOLIS        N/A     54  54 100 CALM      30.20F
MONCKS CORNER  FOG       48  48 100 CALM      30.28F VSB 1
SUMMERVILLE    MOCLDY   N/A N/A N/A CALM      30.29F HAZE
BEAUFORT MCAS  CLOUDY    57  55  93 CALM      30.28F
6HR MIN TEMP:  54; 6HR MAX TEMP:  62;

BEAUFORT ARPT  NOT AVBL
HILTON HEAD IS CLOUDY    55  55 100 N3        30.29F
WALTERBORO     FOG       59 N/A N/A CALM      30.29F VSB 1/2
ALLENDALE      CLOUDY    61  61 100 CALM      30.26F FOG

...SOUTHERN MIDLANDS AND PEE DEE...

CITY           SKY/WX    TMP DP  RH WIND       PRES   REMARKS
GEORGETOWN     FAIR      50  50 100 CALM      30.29S
KINGSTREE      CLOUDY    52  50  93 CALM      30.29F
ORANGEBURG     FOG       56  56 100 SE3       30.27F VSB 3/4
6HR MIN TEMP:  55; 6HR MAX TEMP:  56;

BARNWELL       FOG       59  59 100 CALM      30.27F VSB 1/4
AIKEN          FOG       54  54 100 CALM      30.30F VSB 1/2
MANNING        CLOUDY    52  50  93 CALM      30.29F FOG
COLUMBIA       FOG       54  53  97 E5        30.27F VSB 1/2
6HR MIN TEMP:  54; 6HR MAX TEMP:  56;

SUMTER         FOG       52  52  98 NE3       30.27F VSB 1/4
6HR MIN TEMP:  52; 6HR MAX TEMP:  53;

FLORENCE       CLOUDY    53  51  93 CALM      30.29F
6HR MIN TEMP:  53; 6HR MAX TEMP:  54;

MYRTLE BEACH   CLOUDY    54  48  82 E3        30.30F
N MYRTLE BEACH PTCLDY    51  49  92 CALM      30.28F
6HR MIN TEMP:  51; 6HR MAX TEMP:  55;


$$

GAZ063-065-086>088-099>101-113>116-118-119-134>141-150-170700-
...SOUTHEAST GEORGIA...

CITY           SKY/WX    TMP DP  RH WIND       PRES   REMARKS
SAVANNAH ARPT  FOG       57  56  96 E5        30.28F VSB 1/4
6HR MIN TEMP:  57; 6HR MAX TEMP:  61;

HUNTER AAF     FOG       58  58 100 CALM      30.25F VSB 3/4
6HR MIN TEMP:  56; 6HR MAX TEMP:  59;

FORT STEWART   FOG       57  56  97 CALM      30.25F VSB 1/2
6HR MIN TEMP:  57; 6HR MAX TEMP:  61;

STATESBORO     CLOUDY    61  61 100 SE7       30.27F
SYLVANIA       CLOUDY   N/A N/A N/A CALM      30.27F
CLAXTON        CLOUDY   N/A N/A N/A E3        30.27F

...CSRA...CENTRAL AND FAR SOUTHEAST GEORGIA...

CITY           SKY/WX    TMP DP  RH WIND       PRES   REMARKS
THOMSON        CLOUDY    60  60 100 SE3       30.30S
AUGUSTA-BUSH   FOG       59  57  93 E3        30.25F VSB 1/2
6HR MIN TEMP:  56; 6HR MAX TEMP:  60;

AUGUSTA-DANIEL FOG       58  55  90 E3        30.26F VSB 1/4
SWAINSBORO     CLOUDY    59  59 100 SE6       30.25F
VIDALIA        CLOUDY    59  59 100 SE6       30.26S FOG
EASTMAN        FAIR      53  53 100 CALM      30.26F
HAZLEHURST     FAIR      60  60 100 SE5       30.24S
ALMA           CLOUDY    59  59 100 E6        30.26R FOG
6HR MIN TEMP:  59; 6HR MAX TEMP:  68;

WAYCROSS       CLOUDY    62  62 100 CALM      30.26F FOG
JESUP          FOG       59  57  94 CALM      30.27F VSB 1/2
BAXLEY         CLOUDY    59  59 100 SE5       30.26S FOG
BRUNSWICK      FOG       61  61 100 CALM      30.27F VSB<1/4
SAINT SIMONS   FOG       60  59  96 N3        30.26F VSB 1/4
6HR MIN TEMP:  59; 6HR MAX TEMP:  60;


$$

SCZ027-028-034-036>038-045-046-048>050-GAZ119-141-170700-
...LAKE AND SUPPLEMENTAL COASTAL OBSERVATIONS...

STATION/POSITION TIME  TEMP    WIND        PRES    WAVE   SWELL
                       AIR SEA DIR/SP/G            HT/PER HT/PER/DIR
                 (UTC) (F)     (DEG/KT/KT) (MB)    (FT/S) (FT/S/D)
WINYAH BAY       NOT AVBL
LAKE MURRAY      0520   53      80/  3/  6 1025.1
ACE BASIN NERRS  0445   56        CALM     1026.0
FORT PULASKI     0542           30/  4/  5   N/A
SAPELO ISLAND    0500   60     360/  4     1025.0

$$

ANZ835-935-AMZ111-154-330-350-352-354-370-450-454-472-170700-
...C-MAN AND BUOY OBSERVATIONS...

STATION/POSITION TIME  TEMP    WIND        PRES    WAVE   SWELL
                       AIR SEA DIR/SP/G            HT/PER HT/PER/DIR
                 (UTC) (F)     (DEG/KT/KT) (MB)    (FT/S) (FT/S/D)
BUOY 41004       0450   69 70   60/  6/  8 1024.8    4/ 6   3/ 60/ 6
BUOY 41008       0550   61 59   10/  2/  2 1024.7S   3/ 6   3/ 60/ 6
FOLLY BEACH CMAN 0500   54      50/  7/  8 1025.8F
CAPERS NEARSHORE 0508   54 54   60/  8/ 10 1025.1F
FRIPP NEARSHORE  0508   57 56   60/  6/  8 1024.7F


STATION/POSITION TIME  TEMP    WIND        PRES    WAVE   SWELL
                       AIR SEA DIR/SP/G            HT/PER HT/PER/DIR
                 (UTC) (F)     (DEG/KT/KT) (MB)    (FT/S) (FT/S/D)
5E ST. MARYS GA  0530      61                N/A     2/11
FRYING PAN BUOY  0550   67 70   60/ 10/ 12 1025.0F   3/ 8   3/120/ 8
BUOY 41025       0550   56 73  360/ 10/ 12 1025.2F   3/ 8   2/ 90/ 8
CAPE LOOKOUT NC  0500   49     360/  6/  7 1025.7F
BUOY 41002       0550   70 72  180/ 12/ 14 1025.5F   3/ 8   3/ 60/ 8
BUOY 41010       NOT AVBL
ST AUGUSTINE FL  0600   66 63   CALM  /  1 1025.0F


$$




USA.gov is the U.S. government's official web portal to all federal, state and local government web resources and services.